Lexington Weather

Lexington, Massachusetts, USA

25°F
2/26/2021 7:59am 
  • Lexington Conditions: Clear
  • Temperature: 25.3°F / -3.7°CWarmer 0.7°F than last hour.
  • Dew Point: 16.3°FIncreased 1.4°Fsince last hour.
  • Relative Humidity: 68%Increased 2.0% since last hour.
  • Wind: Wind from NNW NNW 2 mph, 10-min avg: 2 mph, gust: 4 mph
  • Barometer: 30.36 inRising 0.04  inHg/hr Rising Slowly
  • Visibility: 10 miles
  • Snow Today: 0.0 in
  •   

Regional Weather Roundup
for Boston / Norton, MA

        
000
ASUS41 KBOX 201904
RWRBOX

REGIONAL WEATHER ROUNDUP
NATIONAL WEATHER SERVICE BOSTON/NORTON MA
200 PM EST SAT FEB 20 2021

NOTE:  "FAIR" INDICATES FEW OR NO CLOUDS BELOW 12,000 FEET WITH NO 
SIGNIFICANT WEATHER AND/OR OBSTRUCTIONS TO VISIBILITY.

MAZALL-202000-
EASTERN MASSACHUSETTS
  
CITY           SKY/WX    TMP DP  RH WIND       PRES   REMARKS
BOSTON         CLOUDY    30  18  60 NW15      29.97F WCI  19          
BEVERLY        CLOUDY    31  17  56 NW13G21   29.95S WCI  21          
LAWRENCE       CLOUDY    30  15  53 W14G21    29.97S WCI  19          
BEDFORD        PTSUNNY   31  15  52 W9        29.95F WCI  23          
BLUE HILL        N/A     29  19  66 NW12      29.92S WCI  19          
NORWOOD        CLOUDY    33  16  49 NW10      29.97S WCI  25          
MARSHFIELD     PTSUNNY   32  28  86 NW3       29.96S                  
PLYMOUTH       CLOUDY    30  24  78 W8        29.95S WCI  22          
TAUNTON        CLOUDY    32  21  64 NW5       29.96S WCI  27          
NEW BEDFORD    CLOUDY    33  22  63 NW7       29.96R WCI  27          
$$

MAZALL-202000-
CAPE COD AND THE ISLANDS
  
CITY           SKY/WX    TMP DP  RH WIND       PRES   REMARKS
FALMOUTH       CLOUDY    30  27  86 NW10      29.95S WCI  21          
HYANNIS        FLURRIES  32  25  75 NW6       29.94R WCI  26          
CHATHAM        CLOUDY    31  25  78 VRB5      29.95S WCI  26          
PROVINCETOWN   FLURRIES  31  26  82 NW16G22   29.96S WCI  20          
NANTUCKET      CLOUDY    31  25  78 W10       29.95S WCI  22          
MARTHAS VNYRD  MOSUNNY   34  21  59 NW14      29.96R WCI  25          
$$
 
MAZALL-202000-
CENTRAL AND WESTERN MASSACHUSETTS
  
CITY           SKY/WX    TMP DP  RH WIND       PRES   REMARKS
WORCESTER      CLOUDY    29  12  49 NW14      29.92F WCI  18          
FITCHBURG      CLOUDY    31  15  52 NW12      29.97S WCI  22          
ORANGE         CLOUDY    29  12  49 N13       29.97S WCI  19          
SPRINGFIELD    NOT AVBL                                               
WESTFIELD      PTSUNNY   33  13  43 NW18G25   29.99S WCI  22          
NORTH ADAMS    CLOUDY    29  13  51 W10G20    29.99F WCI  20          
PITTSFIELD     CLOUDY    25  12  58 W17G28    29.96S WCI  12          
$$
 
RIZALL-202000-
RHODE ISLAND
  
CITY           SKY/WX    TMP DP  RH WIND       PRES   REMARKS
PROVIDENCE     PTSUNNY   34  16  47 NW14G22   29.97F WCI  25          
NEWPORT        CLOUDY    32  17  54 NW10      29.96S WCI  24          
BLOCK ISLAND   MOSUNNY   34  16  47 W13G20    29.99F WCI  25          
SMITHFIELD     CLOUDY    32  17  54 NW12      29.95F WCI  23          
WESTERLY       MOSUNNY   34  12  40 VRB7G17   29.98F WCI  28          
$$
 
CTZALL-202000-
CONNECTICUT
  
CITY           SKY/WX    TMP DP  RH WIND       PRES   REMARKS
BRADLEY INTL   PTSUNNY   33  12  41 NW17      30.00S WCI  22          
HARTFORD       PTSUNNY   36  11  35 NW14G21   30.02F WCI  27          
BRIDGEPORT     MOSUNNY   34  19  55 NW15      30.05S WCI  24          
DANBURY        FLURRIES  30  17  58 NW8       30.04F SQUALL  WCI  22  
GROTON         MOSUNNY   34  13  41 NW21G31   29.98F WCI  22          
NEW HAVEN      CLOUDY    34  15  46 NW10      30.03F WCI  26          
CHESTER        PTSUNNY   34  10  37 NW16G33   29.99S WCI  23          
MERIDEN        CLOUDY    35  12  38 NW15G25   30.02F WCI  25          
WILLIMANTIC    MOSUNNY   33  12  41 W14G25    29.98F WCI  23          
OXFORD         PTSUNNY   30  17  58 NW10G18   30.01S WCI  21          
$$

MEZ002-015-021-024-NHZ003-005-008-011-012-014-VTZ005-008-202000-
NORTHERN NEW ENGLAND
  
CITY           SKY/WX    TMP DP  RH WIND       PRES   REMARKS
PORTLAND ME    CLOUDY    30  17  58 NW9       29.93S WCI  22          
BANGOR ME      PTSUNNY   29   9  43 NW13      29.90S WCI  19          
CONCORD NH     CLOUDY    28  12  51 NW14G24   29.96S WCI  17          
MANCHESTER NH  PTSUNNY   30  14  51 NW14      29.95S WCI  19          
NASHUA NH      CLOUDY    31  18  58 NW18      29.97S WCI  19          
PORTSMOUTH NH  PTSUNNY   30  12  46 NW13G22   29.93S WCI  20          
JAFFREY NH     CLOUDY    27  11  51 NW8       29.93S WCI  19          
KEENE NH       CLOUDY    33  11  39 NW9G20    29.98S WCI  25          
BURLINGTON VT  PTSUNNY   26  13  57 N13       30.04R WCI  15          
MT. WASHINGTON SNOWSHWR   0   0 100 NW35        N/A  VSB 1/16WCI -28  
$$

NYZ052-076-202000-
EASTERN NEW YORK
  
CITY           SKY/WX    TMP DP  RH WIND       PRES   REMARKS
ALBANY         PTSUNNY   27  16  63 W17G24    30.06R WCI  14          
NEW YORK CITY  PTSUNNY   34  14  43 W15       30.08F WCI  24          
$$
 
ANZALL-202000-
MARINE OBSERVATIONS
  
STATION/POSITION TIME  TEMP    WIND        PRES    VSBY  WAVE
                       AIR SEA DIR/SP/G                  HT/PER
                 (UTC) (F)     (DEG/KT/KT) (MB)    (MI)  (FT/S)
BOSTON BUOY      1840   32 39  300/ 16/ 23 1015.0S
BUZZARDS BAY     1800          310/ 15/ 16 1015.8F
NANTUCKET SOUND  1840          290/ 10/ 14   N/A
MASS BAY-STELLWA 1804   32     300/ 14/ 17 1013.2S  1 7/8  7/11
ISLE OF SHOALS   1800   31     300/ 15/ 18 1013.3F
S OF BLOCK IS    1826      38                N/A           6/ 9
$$

......................KEY.........................
  SKY/WX - SKY CONDITION/PRESENT WEATHER
  TMP    - TEMPERATURE IN FAHRENHEIT
  DWPT   - DEWPOINT IN FAHRENHEIT
  RH     - RELATIVE HUMIDITY IN PERCENT
  WIND   - DIRECTION AND SPEED IN MPH
  PRES   - MEAN SEA LEVEL PRESSURE IN INCHES OF HG
  WCI    - WIND CHILL INDEX
  VSB    - VISIBILITY IN MILES
  HX     - HEAT INDEX
  TC     - TEMPERATURE IN CELSIUS
  VRB    - VARIABLE WIND DIRECTION
  N/A    - NOT AVAILABLE
  
      

Other recent Regional Weather Roundups

Fri Feb 26, 7:04am

Fri Feb 26, 6:04am

Fri Feb 26, 5:04am

Fri Feb 26, 4:04am

Fri Feb 26, 3:04am

Fri Feb 26, 2:04am

Fri Feb 26, 1:04am

Fri Feb 26, 12:04am

Thu Feb 25, 11:04pm

Thu Feb 25, 10:04pm

Thu Feb 25, 9:04pm

Thu Feb 25, 8:05pm

Thu Feb 25, 7:05pm

Thu Feb 25, 6:04pm

Thu Feb 25, 5:04pm

Thu Feb 25, 4:05pm

Thu Feb 25, 3:05pm

Thu Feb 25, 2:04pm

Thu Feb 25, 1:04pm

Thu Feb 25, 12:05pm

Thu Feb 25, 11:04am

Thu Feb 25, 10:04am

Thu Feb 25, 9:04am

Thu Feb 25, 8:04am

Thu Feb 25, 7:04am

Thu Feb 25, 6:04am

Thu Feb 25, 5:04am

Thu Feb 25, 4:04am

Thu Feb 25, 3:04am

Thu Feb 25, 2:04am

Thu Feb 25, 1:04am

Thu Feb 25, 12:04am

Wed Feb 24, 11:04pm

Wed Feb 24, 10:05pm

Wed Feb 24, 9:04pm

Wed Feb 24, 8:04pm

Wed Feb 24, 7:04pm

Wed Feb 24, 6:04pm

Wed Feb 24, 5:04pm

Wed Feb 24, 4:04pm

Wed Feb 24, 3:04pm

Wed Feb 24, 2:05pm

Wed Feb 24, 1:05pm

Wed Feb 24, 12:05pm

Wed Feb 24, 11:04am

Wed Feb 24, 10:04am

Wed Feb 24, 9:04am

Wed Feb 24, 8:04am

Wed Feb 24, 7:04am

Wed Feb 24, 6:04am

Wed Feb 24, 5:04am

Wed Feb 24, 4:04am

Wed Feb 24, 3:04am

Wed Feb 24, 2:04am

Wed Feb 24, 1:04am

Wed Feb 24, 12:04am

Tue Feb 23, 11:04pm

Tue Feb 23, 10:04pm

Tue Feb 23, 9:04pm

Tue Feb 23, 8:05pm

Tue Feb 23, 7:04pm

Tue Feb 23, 6:04pm

Tue Feb 23, 5:04pm

Tue Feb 23, 4:05pm

Tue Feb 23, 3:04pm

Tue Feb 23, 2:04pm

Tue Feb 23, 1:04pm

Tue Feb 23, 12:04pm

Tue Feb 23, 11:04am

Tue Feb 23, 10:04am

Tue Feb 23, 9:04am

Tue Feb 23, 7:04am

Tue Feb 23, 6:04am

Tue Feb 23, 5:04am

Tue Feb 23, 4:04am

Tue Feb 23, 3:04am

Tue Feb 23, 2:04am

Tue Feb 23, 1:04am

Tue Feb 23, 12:04am

Mon Feb 22, 11:04pm

Mon Feb 22, 10:04pm

Mon Feb 22, 9:04pm

Mon Feb 22, 8:04pm

Mon Feb 22, 7:04pm

Mon Feb 22, 6:04pm

Mon Feb 22, 5:04pm

Mon Feb 22, 4:05pm

Mon Feb 22, 3:04pm

Mon Feb 22, 2:05pm

Mon Feb 22, 1:04pm

Mon Feb 22, 12:05pm

Mon Feb 22, 11:04am

Mon Feb 22, 10:04am

Mon Feb 22, 9:05am

Mon Feb 22, 8:04am

Mon Feb 22, 7:04am

Mon Feb 22, 6:04am

Mon Feb 22, 5:04am

Mon Feb 22, 4:04am

Mon Feb 22, 3:04am

Mon Feb 22, 2:04am

Mon Feb 22, 1:04am

Mon Feb 22, 12:04am

Sun Feb 21, 11:04pm

Sun Feb 21, 10:05pm

Sun Feb 21, 9:04pm

Sun Feb 21, 8:04pm

Sun Feb 21, 7:04pm

Sun Feb 21, 6:04pm

Sun Feb 21, 5:04pm

Sun Feb 21, 4:05pm

Sun Feb 21, 3:04pm

Sun Feb 21, 2:04pm

Sun Feb 21, 1:05pm

Sun Feb 21, 12:05pm

Sun Feb 21, 11:04am

Sun Feb 21, 10:05am

Sun Feb 21, 9:04am

Sun Feb 21, 8:04am

Sun Feb 21, 7:04am

Sun Feb 21, 6:04am

Sun Feb 21, 5:04am

Sun Feb 21, 4:04am

Sun Feb 21, 3:04am

Sun Feb 21, 2:04am

Sun Feb 21, 1:04am

Sun Feb 21, 12:04am

Sat Feb 20, 11:04pm

Sat Feb 20, 10:04pm

Sat Feb 20, 9:04pm

Sat Feb 20, 8:04pm

Sat Feb 20, 7:04pm

Sat Feb 20, 6:04pm

Sat Feb 20, 5:04pm

Sat Feb 20, 4:05pm

Sat Feb 20, 3:04pm

Sat Feb 20, 1:05pm

Sat Feb 20, 12:05pm

Sat Feb 20, 11:04am

Sat Feb 20, 10:05am

Sat Feb 20, 9:04am

Sat Feb 20, 8:04am

Sat Feb 20, 7:04am

Sat Feb 20, 6:04am

Sat Feb 20, 5:04am

Sat Feb 20, 4:04am

Sat Feb 20, 3:04am

Sat Feb 20, 2:04am

Sat Feb 20, 1:04am

Sat Feb 20, 12:04am

Fri Feb 19, 11:04pm

Fri Feb 19, 10:05pm

Fri Feb 19, 9:04pm

Fri Feb 19, 8:04pm

Fri Feb 19, 7:04pm

Fri Feb 19, 6:04pm

Fri Feb 19, 5:04pm

Fri Feb 19, 4:05pm

Fri Feb 19, 3:04pm

Fri Feb 19, 2:04pm

Fri Feb 19, 1:05pm

Fri Feb 19, 12:05pm

Fri Feb 19, 11:04am

Fri Feb 19, 10:04am

Fri Feb 19, 9:04am

Fri Feb 19, 8:04am

Meta data:

ID: 36a60838-d14f-4d00-ac28-3b1f3fe07582
Link: https://api.weather.gov/products/36a60838-d14f-4d00-ac28-3b1f3fe07582